Location: Newark
(44.3449°N, 4.8694°E)
Time: 05:41:57
(UTC+00:00)

N. Korean satellite - Visible Passes

Search period start: 18 January 2020 00:00
Search period end: 28 January 2020 00:00
Orbit: 454 x 508 km, 97.2° (Epoch: 17 January)

Date Brightness Start Highest point End Pass type
(mag) Time Alt. Az. Time Alt. Az. Time Alt. Az.
18 Jan 6.4 05:36:33 10° NNE 05:40:04 87° WNW 05:43:37 10° SSW visible
18 Jan 10.0 17:48:59 10° WSW 17:50:24 12° W 17:51:49 10° WNW visible
19 Jan 7.8 05:11:11 10° NNE 05:14:33 42° E 05:17:57 10° S visible
19 Jan 9.2 17:21:52 10° SSW 17:24:43 24° W 17:27:34 10° NW visible
20 Jan 9.2 04:46:13 10° NE 04:48:57 21° E 04:51:42 10° SE visible
20 Jan 7.5 06:19:22 10° NNW 06:22:18 25° WNW 06:25:16 10° SW visible
21 Jan 10.1 04:22:29 10° ENE 04:23:16 11° E 04:24:02 10° ESE visible
21 Jan 6.6 05:53:29 10° N 05:56:56 51° WNW 06:00:24 10° SSW visible
22 Jan 6.7 05:27:55 10° NNE 05:31:28 73° ESE 05:35:03 10° S visible
22 Jan 9.8 17:39:38 10° SW 17:41:43 15° W 17:43:47 10° NW visible
23 Jan 8.3 05:02:39 10° NNE 05:05:55 33° E 05:09:13 10° SSE visible
23 Jan 8.1 06:36:45 10° NNW 06:39:04 17° WNW 06:41:24 10° WSW visible
23 Jan 8.7 17:12:59 10° SSW 17:16:02 30° W 17:19:07 10° NNW visible
24 Jan 9.6 04:37:53 10° NE 04:40:17 17° E 04:42:43 10° SE visible
24 Jan 7.3 06:10:34 10° N 06:13:45 31° WNW 06:16:58 10° SW visible
25 Jan 6.4 05:44:47 10° N 05:48:20 66° WNW 05:51:56 10° SSW visible
26 Jan 7.2 05:19:19 10° NNE 05:22:51 56° E 05:26:25 10° S visible
26 Jan 9.6 17:30:29 10° SW 17:33:00 19° W 17:35:32 10° NW visible
27 Jan 8.8 04:54:10 10° NE 04:57:16 27° E 05:00:24 10° SSE visible
27 Jan 7.9 06:27:48 10° NNW 06:30:30 21° WNW 06:33:16 10° WSW visible
